SCP
0 -0 -0 -0 -1 -1 -1 -1 -0 -0 -0 -0 -0 -0 0 0 0 0 0 0 0 -0 -0 -0 -0 -0 -0 -0 -0 -0 0 0 0 0 0 0 0 0 0 0 0 0 0
-0 0 -0 -0 -1 -1 -1 -0 -0 -0 -0 0 0 0 0 0 0 0 0 0 0 0 0 0 -0 0 0 0 0 0 0 0 0 0 0 0 0 0 0 0 0 0 0
-0 -0 -0 -0 -0 -1 -1 -0 -0 -0 0 0 0 0 0 0 0 0 0 0 0 0 -0 -0 0 0 0 0 0 0 0 0 0 0 0 0 0 0 0 0 0 0 0
-0 -0 -0 -0 -0 -0 -0 -0 -0 0 0 0 0 0 0 0 0 0 0 0 -0 -0 -0 -0 0 0 0 0 0 0 0 0 0 0 0 0 0 0 0 0 0 0 0
0 0 0 -0 0 -0 -0 -0 -0 0 0 0 0 0 0 0 0 0 0 0 -0 -0 -0 -0 0 0 0 0 0 0 0 0 0 0 0 0 0 0 0 0 0 0 0
0 0 0 0 0 0 -0 -0 -0 0 0 0 0 0 0 0 0 0 0 0 -0 -0 -0 -0 -0 0 0 0 0 0 0 0 0 0 0 0 0 0 1 0 0 0 0
0 0 1 0 0 0 0 -0 -0 0 0 0 0 0 0 0 0 0 0 0 0 -0 0 0 0 0 0 0 0 0 0 0 0 0 0 0 0 0 1 1 1 0 0
0 1 1 1 0 0 0 0 0 0 -0 0 -0 -0 -0 -0 -0 -0 0 0 0 -0 0 0 0 0 0 0 0 0 0 0 0 0 0 0 0 0 1 1 1 1 0
1 1 2 2 1 0 0 0 0 0 0 -0 -0 -0 -0 -0 -0 -0 -0 0 -0 -0 0 0 0 0 0 0 0 0 0 0 0 0 0 0 0 0 1 1 1 1 1
1 1 2 2 2 1 1 0 0 0 0 -0 -0 -0 -0 -0 -0 -0 -0 -0 -0 -0 0 0 0 0 0 0 0 0 0 0 0 0 0 0 0 0 1 1 1 1 1
2 1 1 2 2 1 1 1 1 1 0 0 -0 -0 -0 -0 -0 -0 -0 -0 -0 0 0 -0 -0 0 0 0 0 0 -0 0 0 0 0 0 0 0 1 1 1 1 1
1 1 1 1 2 2 2 1 1 1 1 0 0 0 -0 -0 -0 -0 -0 -0 0 0 0 -0 -0 -0 0 0 0 0 0 0 0 0 0 0 0 0 1 1 1 1 1
1 1 1 1 1 3 3 2 2 2 1 1 0 0 0 0 -0 -0 -0 -0 0 0 0 0 0 0 0 0 0 0 0 0 0 0 0 0 0 0 1 1 1 1 1
1 1 0 1 1 1 3 3 2 1 1 1 1 0 0 0 0 0 -0 -0 0 0 0 0 0 0 0 0 0 0 0 0 0 0 0 0 0 1 1 1 1 1 1
1 1 0 1 1 1 2 2 2 2 1 1 1 0 0 0 0 0 0 0 0 0 0 0 0 0 0 0 0 0 0 0 0 0 0 0 1 1 1 1 1 1 1
0 0 0 1 1 1 2 1 1 1 1 1 1 0 0 0 0 0 0 0 0 0 0 0 0 0 0 0 0 0 0 0 0 0 0 0 1 1 1 1 1 1 0
0 0 0 1 1 1 1 1 1 1 1 1 1 0 0 0 0 0 0 0 0 0 0 0 0 0 0 0 0 0 0 0 0 0 0 0 0 1 1 1 1 1 1
0 0 0 2 1 1 2 2 1 1 1 1 1 1 1 1 0 0 0 0 0 0 0 0 0 0 0 0 0 0 0 0 0 0 0 0 0 0 0 0 0 1 1
0 0 0 1 2 2 3 4 3 2 1 1 1 1 1 1 1 1 0 0 1 0 0 0 0 0 0 0 0 0 0 0 0 0 0 0 0 0 0 0 0 0 0
0 0 0 0 1 2 3 4 3 4 3 3 1 1 1 2 1 1 1 1 1 1 0 0 0 0 0 0 0 0 0 0 0 0 0 0 0 0 0 0 0 0 0
0 0 0 0 0 1 3 3 4 3 4 4 2 1 3 3 2 2 2 2 2 1 1 0 0 0 0 0 0 0 0 0 0 0 0 0 0 0 1 0 0 0 0
0 0 0 0 0 0 4 4 3 2 2 2 4 2 1 2 3 1 2 2 2 2 1 0 0 0 0 0 0 0 0 0 0 1 0 1 1 1 1 1 0 0 0
0 0 0 0 0 0 0 1 4 4 5 3 1 2 2 1 1 3 3 2 2 2 2 1 0 0 0 0 0 0 1 0 0 0 0 0 0 1 1 1 0 0 0
0 0 0 0 0 0 0 0 1 2 3 3 2 2 4 2 1 1 3 3 3 3 2 1 1 0 0 0 0 0 0 0 0 0 0 0 0 0 1 1 1 0 0
0 0 0 0 0 0 0 0 0 0 0 1 0 1 3 3 2 1 1 1 3 2 1 2 1 1 0 0 0 0 0 0 0 0 0 0 0 0 1 1 1 0 0
0 0 0 0 0 0 0 0 0 0 0 0 0 1 1 3 3 2 2 2 2 2 2 1 1 1 1 0 0 1 0 0 0 0 0 0 0 0 0 1 1 0 0
Wind_Speed_500mb
40 50 56 56 54 53 51 48 45 48 47 44 42 40 38 35 32 30 29 29 29 28 26 24 22 20 18 18 19 18 17 19 24 28 28 24 22 20 16 14 13 15 13
50 52 58 59 55 52 51 47 46 49 49 48 49 48 45 42 38 36 33 31 29 28 26 24 22 22 21 21 21 20 20 20 20 21 22 23 28 29 27 19 15 13 11
52 52 59 61 58 55 52 49 48 49 49 51 52 52 51 47 41 37 34 32 29 27 25 24 24 22 21 20 20 19 19 19 18 16 16 18 24 27 30 27 17 12 10
34 51 58 62 61 57 56 54 52 52 53 55 55 54 50 45 41 37 33 30 27 24 22 21 20 20 19 18 17 14 12 11 10 12 12 16 21 23 26 27 22 15 10
33 44 55 62 62 61 61 62 57 55 54 55 55 52 48 44 40 35 32 29 25 23 20 17 15 14 13 13 11 9 7 6 7 7 6 9 15 21 25 27 22 19 14
30 45 50 61 63 62 65 66 63 59 55 53 52 50 47 43 40 36 31 27 23 19 16 13 10 8 7 6 6 4 3 5 6 3 6 11 7 15 24 24 24 19 16
28 38 50 59 64 63 65 66 65 59 57 54 50 48 45 42 38 34 30 26 22 18 14 9 5 3 2 1 1 1 2 4 8 8 10 15 12 10 26 27 27 25 20
23 41 52 60 64 65 64 65 65 62 57 54 51 46 43 40 36 32 27 23 20 16 11 7 1 3 6 8 7 7 7 8 10 13 13 16 16 15 24 30 29 30 25
35 44 56 61 68 68 65 65 64 60 57 54 51 47 43 38 35 30 26 21 18 14 10 6 3 7 9 12 14 12 11 10 11 14 23 23 20 21 24 31 30 33 33
31 44 56 63 71 73 70 66 64 60 56 52 49 46 44 39 35 31 26 20 16 12 10 6 6 11 13 15 18 18 16 9 9 13 14 20 25 23 27 34 33 33 34
40 47 60 64 70 74 74 69 64 61 58 54 50 46 44 41 36 30 25 21 16 13 12 10 10 14 18 19 20 23 23 10 9 9 10 10 16 25 32 32 34 34 32
36 54 56 67 69 74 74 73 70 67 64 58 53 48 43 39 36 30 26 22 19 16 15 15 18 19 23 24 20 21 20 15 17 10 6 7 17 26 28 32 35 35 34
30 55 56 61 69 72 78 78 74 72 68 63 57 51 46 42 39 35 32 27 23 19 18 18 20 24 24 23 14 19 19 19 22 20 16 19 24 28 31 28 33 37 36
30 39 49 49 60 70 72 78 77 73 70 67 63 57 54 49 45 41 37 31 26 22 18 10 10 11 15 16 15 19 24 24 25 29 30 32 39 44 42 38 36 37 34
30 31 37 49 54 61 72 77 79 75 71 69 65 63 60 56 52 47 43 37 31 25 20 15 12 11 12 16 18 21 25 32 35 33 35 37 42 43 43 39 37 33 32
27 30 24 35 46 45 56 68 72 71 66 64 65 66 65 62 58 54 49 44 38 31 22 20 20 18 22 22 24 26 34 35 35 34 34 38 41 39 36 34 39 34 29
35 30 28 31 45 42 43 51 59 64 51 49 58 64 65 63 61 57 52 48 44 36 28 28 28 26 30 35 35 35 38 41 42 37 34 37 41 40 37 33 32 27 29
48 46 37 40 49 50 48 49 51 45 52 59 48 52 61 60 60 58 54 52 49 42 37 37 38 36 39 43 44 52 51 44 37 37 36 45 45 48 44 40 35 32 32
55 53 49 42 57 65 60 58 54 45 46 51 58 51 47 47 47 48 49 48 43 48 45 43 45 41 40 43 43 47 52 50 39 38 38 45 55 50 49 44 41 37 35
61 63 63 47 55 65 66 70 63 59 55 49 57 63 58 54 50 47 43 40 36 43 46 48 50 46 39 38 40 50 57 57 46 42 37 48 55 44 48 48 48 41 34
74 74 72 52 61 67 74 76 69 64 64 67 67 64 72 53 55 43 45 43 44 44 49 49 52 55 52 46 45 52 58 53 46 42 43 50 55 41 43 55 51 47 41
73 69 68 63 53 54 65 69 68 59 63 74 81 72 60 49 55 54 58 53 50 43 46 48 50 60 61 57 56 52 53 47 53 59 52 57 67 47 40 51 53 50 44
71 74 70 61 56 49 49 57 61 62 57 59 78 76 76 70 59 54 58 57 56 42 47 53 50 57 67 69 65 53 27 31 46 61 57 62 59 52 43 46 46 48 47
71 66 59 47 41 41 46 47 55 57 63 61 59 70 53 51 49 58 60 72 44 53 46 41 52 62 74 75 76 69 59 57 48 67 71 73 64 46 46 43 42 45 41
63 58 51 44 41 42 44 47 46 42 55 55 59 64 72 74 77 69 55 62 66 58 41 45 49 58 57 67 70 67 71 62 60 66 78 73 69 50 41 35 35 41 45
57 49 43 37 34 33 36 39 44 50 48 54 54 60 70 62 52 70 83 82 77 77 90 67 59 56 59 68 85 78 74 74 75 70 72 77 80 68 46 41 42 47 46
Wind_Direction_500mb
164 166 159 159 158 155 151 150 150 152 152 153 155 156 156 156 156 148 143 135 126 120 114 108 105 101 97 93 90 87 84 89 90 89 77 72 57 39 34 40 48 38 45
165 165 161 161 160 157 152 152 152 152 153 155 157 159 159 157 150 143 137 126 120 114 110 108 106 101 96 92 91 94 95 96 97 96 77 70 57 36 21 23 23 24 31
164 163 164 163 161 159 155 153 152 149 149 147 148 149 151 148 143 138 131 124 117 114 113 109 103 98 95 94 92 91 93 94 93 87 79 61 52 31 16 9 5 5 10
164 165 166 164 163 161 156 152 150 148 145 144 145 146 146 143 140 135 130 124 120 116 109 103 99 95 92 91 95 98 101 105 92 74 46 47 39 27 4 360 360 357 350
162 171 169 167 165 164 159 154 153 151 149 148 147 147 145 144 140 136 132 129 127 120 113 104 97 94 91 90 92 105 110 111 103 60 29 26 23 21 347 354 352 348 352
161 173 173 170 168 168 162 158 157 155 155 153 151 150 149 147 144 141 140 136 133 124 119 113 104 93 98 99 100 107 142 155 174 199 283 314 352 4 342 339 348 338 339
167 176 178 174 172 171 167 164 162 162 161 159 157 155 154 152 150 148 147 145 141 136 127 117 95 64 3 8 8 326 297 233 235 258 269 299 329 328 323 331 340 338 328
186 178 181 177 176 174 173 170 170 169 167 165 162 162 161 159 157 156 155 155 152 148 145 135 96 323 314 309 308 312 313 308 294 267 272 298 309 302 298 320 332 336 324
192 184 180 182 180 178 178 177 177 176 174 171 170 169 168 168 165 165 167 168 168 168 173 173 241 288 302 305 304 308 314 317 320 291 287 282 296 307 296 305 317 325 328
188 194 185 184 185 182 181 183 184 183 183 180 178 178 176 177 177 176 178 184 188 196 207 226 279 302 312 312 312 312 309 317 347 349 284 268 274 290 294 288 308 310 323
189 194 190 188 190 189 186 185 188 191 190 189 188 188 187 186 186 188 190 199 210 226 246 264 290 306 305 309 318 312 304 282 309 12 4 268 278 292 293 285 287 301 311
184 187 193 192 195 194 193 191 190 194 197 197 196 196 197 197 196 198 205 214 225 241 261 281 291 297 303 314 327 316 303 277 300 322 329 276 285 295 297 284 280 296 305
188 190 191 197 198 200 200 199 196 198 199 201 202 203 204 207 207 208 213 221 234 250 266 283 289 293 304 306 327 331 328 304 310 312 314 300 297 300 300 293 286 294 305
171 191 202 201 203 204 209 208 206 204 205 206 206 207 210 211 215 217 221 227 237 246 252 266 300 305 322 325 329 325 325 327 326 321 318 312 308 305 301 293 292 294 301
163 177 191 209 207 213 210 210 214 211 212 213 212 212 214 216 218 222 225 231 235 236 233 252 275 283 300 311 314 311 325 331 326 323 322 319 310 305 299 296 290 292 295
193 186 205 204 212 214 216 216 214 217 219 223 223 222 219 220 223 225 229 233 237 238 241 258 273 277 284 291 299 311 321 320 320 321 322 315 308 308 304 307 297 287 288
216 216 216 227 207 208 215 213 219 220 220 227 233 233 231 227 225 230 235 240 244 247 251 259 269 276 285 293 299 302 313 319 321 322 316 324 318 309 302 305 304 291 288
218 225 213 215 216 211 209 211 214 218 228 228 226 228 231 231 232 232 235 243 247 249 252 261 268 274 279 286 294 296 299 299 306 313 318 330 325 317 302 301 295 298 290
226 224 223 208 210 204 208 211 214 223 231 231 228 222 218 222 226 230 235 240 245 246 247 253 261 261 270 275 283 287 288 292 296 314 324 341 334 315 302 301 293 294 293
226 223 225 203 201 203 209 212 215 226 230 229 229 226 221 217 218 225 235 240 241 249 252 250 254 252 258 265 275 281 288 296 285 296 317 322 319 308 297 293 292 287 281
217 216 219 209 201 204 207 216 222 229 225 227 237 227 228 224 224 227 241 246 248 254 263 265 264 260 263 271 279 301 295 294 287 287 308 310 313 295 290 290 287 285 278
213 213 217 219 216 214 218 220 225 232 238 221 218 216 212 214 232 249 247 249 249 255 263 263 270 266 264 267 266 279 293 297 290 284 287 300 301 288 293 293 279 281 275
211 213 216 220 221 224 228 231 231 232 239 234 227 222 228 229 243 242 250 257 249 256 260 267 269 271 271 274 270 265 266 274 289 293 283 279 296 283 295 290 274 278 273
205 206 211 212 213 225 231 236 241 239 238 237 237 232 225 211 225 250 245 246 242 262 267 269 272 273 269 274 279 274 271 269 280 295 293 288 299 299 289 281 279 276 271
190 194 201 207 215 226 239 237 243 246 240 241 246 249 235 237 243 234 242 253 243 251 266 275 273 280 286 288 281 277 278 270 272 267 278 289 291 300 278 290 282 274 267
177 187 198 210 224 234 239 245 250 249 247 245 245 246 242 237 243 240 237 236 261 255 251 263 271 285 292 299 291 285 277 266 281 275 265 281 285 286 284 284 277 276 271
Wind_Speed_850mb
40 50 56 56 54 53 51 48 45 48 47 44 42 40 38 35 32 30 29 29 29 28 26 24 22 20 18 18 19 18 17 19 24 28 28 24 22 20 16 14 13 15 13
50 52 58 59 55 52 51 47 46 49 49 48 49 48 45 42 38 36 33 31 29 28 26 24 22 22 21 21 21 20 20 20 20 21 22 23 28 29 27 19 15 13 11
52 52 59 61 58 55 52 49 48 49 49 51 52 52 51 47 41 37 34 32 29 27 25 24 24 22 21 20 20 19 19 19 18 16 16 18 24 27 30 27 17 12 10
34 51 58 62 61 57 56 54 52 52 53 55 55 54 50 45 41 37 33 30 27 24 22 21 20 20 19 18 17 14 12 11 10 12 12 16 21 23 26 27 22 15 10
33 44 55 62 62 61 61 62 57 55 54 55 55 52 48 44 40 35 32 29 25 23 20 17 15 14 13 13 11 9 7 6 7 7 6 9 15 21 25 27 22 19 14
30 45 50 61 63 62 65 66 63 59 55 53 52 50 47 43 40 36 31 27 23 19 16 13 10 8 7 6 6 4 3 5 6 3 6 11 7 15 24 24 24 19 16
28 38 50 59 64 63 65 66 65 59 57 54 50 48 45 42 38 34 30 26 22 18 14 9 5 3 2 1 1 1 2 4 8 8 10 15 12 10 26 27 27 25 20
23 41 52 60 64 65 64 65 65 62 57 54 51 46 43 40 36 32 27 23 20 16 11 7 1 3 6 8 7 7 7 8 10 13 13 16 16 15 24 30 29 30 25
35 44 56 61 68 68 65 65 64 60 57 54 51 47 43 38 35 30 26 21 18 14 10 6 3 7 9 12 14 12 11 10 11 14 23 23 20 21 24 31 30 33 33
31 44 56 63 71 73 70 66 64 60 56 52 49 46 44 39 35 31 26 20 16 12 10 6 6 11 13 15 18 18 16 9 9 13 14 20 25 23 27 34 33 33 34
40 47 60 64 70 74 74 69 64 61 58 54 50 46 44 41 36 30 25 21 16 13 12 10 10 14 18 19 20 23 23 10 9 9 10 10 16 25 32 32 34 34 32
36 54 56 67 69 74 74 73 70 67 64 58 53 48 43 39 36 30 26 22 19 16 15 15 18 19 23 24 20 21 20 15 17 10 6 7 17 26 28 32 35 35 34
30 55 56 61 69 72 78 78 74 72 68 63 57 51 46 42 39 35 32 27 23 19 18 18 20 24 24 23 14 19 19 19 22 20 16 19 24 28 31 28 33 37 36
30 39 49 49 60 70 72 78 77 73 70 67 63 57 54 49 45 41 37 31 26 22 18 10 10 11 15 16 15 19 24 24 25 29 30 32 39 44 42 38 36 37 34
30 31 37 49 54 61 72 77 79 75 71 69 65 63 60 56 52 47 43 37 31 25 20 15 12 11 12 16 18 21 25 32 35 33 35 37 42 43 43 39 37 33 32
27 30 24 35 46 45 56 68 72 71 66 64 65 66 65 62 58 54 49 44 38 31 22 20 20 18 22 22 24 26 34 35 35 34 34 38 41 39 36 34 39 34 29
35 30 28 31 45 42 43 51 59 64 51 49 58 64 65 63 61 57 52 48 44 36 28 28 28 26 30 35 35 35 38 41 42 37 34 37 41 40 37 33 32 27 29
48 46 37 40 49 50 48 49 51 45 52 59 48 52 61 60 60 58 54 52 49 42 37 37 38 36 39 43 44 52 51 44 37 37 36 45 45 48 44 40 35 32 32
55 53 49 42 57 65 60 58 54 45 46 51 58 51 47 47 47 48 49 48 43 48 45 43 45 41 40 43 43 47 52 50 39 38 38 45 55 50 49 44 41 37 35
61 63 63 47 55 65 66 70 63 59 55 49 57 63 58 54 50 47 43 40 36 43 46 48 50 46 39 38 40 50 57 57 46 42 37 48 55 44 48 48 48 41 34
74 74 72 52 61 67 74 76 69 64 64 67 67 64 72 53 55 43 45 43 44 44 49 49 52 55 52 46 45 52 58 53 46 42 43 50 55 41 43 55 51 47 41
73 69 68 63 53 54 65 69 68 59 63 74 81 72 60 49 55 54 58 53 50 43 46 48 50 60 61 57 56 52 53 47 53 59 52 57 67 47 40 51 53 50 44
71 74 70 61 56 49 49 57 61 62 57 59 78 76 76 70 59 54 58 57 56 42 47 53 50 57 67 69 65 53 27 31 46 61 57 62 59 52 43 46 46 48 47
71 66 59 47 41 41 46 47 55 57 63 61 59 70 53 51 49 58 60 72 44 53 46 41 52 62 74 75 76 69 59 57 48 67 71 73 64 46 46 43 42 45 41
63 58 51 44 41 42 44 47 46 42 55 55 59 64 72 74 77 69 55 62 66 58 41 45 49 58 57 67 70 67 71 62 60 66 78 73 69 50 41 35 35 41 45
57 49 43 37 34 33 36 39 44 50 48 54 54 60 70 62 52 70 83 82 77 77 90 67 59 56 59 68 85 78 74 74 75 70 72 77 80 68 46 41 42 47 46
Wind_Direction_850mb
164 166 159 159 158 155 151 150 150 152 152 153 155 156 156 156 156 148 143 135 126 120 114 108 105 101 97 93 90 87 84 89 90 89 77 72 57 39 34 40 48 38 45
165 165 161 161 160 157 152 152 152 152 153 155 157 159 159 157 150 143 137 126 120 114 110 108 106 101 96 92 91 94 95 96 97 96 77 70 57 36 21 23 23 24 31
164 163 164 163 161 159 155 153 152 149 149 147 148 149 151 148 143 138 131 124 117 114 113 109 103 98 95 94 92 91 93 94 93 87 79 61 52 31 16 9 5 5 10
164 165 166 164 163 161 156 152 150 148 145 144 145 146 146 143 140 135 130 124 120 116 109 103 99 95 92 91 95 98 101 105 92 74 46 47 39 27 4 360 360 357 350
162 171 169 167 165 164 159 154 153 151 149 148 147 147 145 144 140 136 132 129 127 120 113 104 97 94 91 90 92 105 110 111 103 60 29 26 23 21 347 354 352 348 352
161 173 173 170 168 168 162 158 157 155 155 153 151 150 149 147 144 141 140 136 133 124 119 113 104 93 98 99 100 107 142 155 174 199 283 314 352 4 342 339 348 338 339
167 176 178 174 172 171 167 164 162 162 161 159 157 155 154 152 150 148 147 145 141 136 127 117 95 64 3 8 8 326 297 233 235 258 269 299 329 328 323 331 340 338 328
186 178 181 177 176 174 173 170 170 169 167 165 162 162 161 159 157 156 155 155 152 148 145 135 96 323 314 309 308 312 313 308 294 267 272 298 309 302 298 320 332 336 324
192 184 180 182 180 178 178 177 177 176 174 171 170 169 168 168 165 165 167 168 168 168 173 173 241 288 302 305 304 308 314 317 320 291 287 282 296 307 296 305 317 325 328
188 194 185 184 185 182 181 183 184 183 183 180 178 178 176 177 177 176 178 184 188 196 207 226 279 302 312 312 312 312 309 317 347 349 284 268 274 290 294 288 308 310 323
189 194 190 188 190 189 186 185 188 191 190 189 188 188 187 186 186 188 190 199 210 226 246 264 290 306 305 309 318 312 304 282 309 12 4 268 278 292 293 285 287 301 311
184 187 193 192 195 194 193 191 190 194 197 197 196 196 197 197 196 198 205 214 225 241 261 281 291 297 303 314 327 316 303 277 300 322 329 276 285 295 297 284 280 296 305
188 190 191 197 198 200 200 199 196 198 199 201 202 203 204 207 207 208 213 221 234 250 266 283 289 293 304 306 327 331 328 304 310 312 314 300 297 300 300 293 286 294 305
171 191 202 201 203 204 209 208 206 204 205 206 206 207 210 211 215 217 221 227 237 246 252 266 300 305 322 325 329 325 325 327 326 321 318 312 308 305 301 293 292 294 301
163 177 191 209 207 213 210 210 214 211 212 213 212 212 214 216 218 222 225 231 235 236 233 252 275 283 300 311 314 311 325 331 326 323 322 319 310 305 299 296 290 292 295
193 186 205 204 212 214 216 216 214 217 219 223 223 222 219 220 223 225 229 233 237 238 241 258 273 277 284 291 299 311 321 320 320 321 322 315 308 308 304 307 297 287 288
216 216 216 227 207 208 215 213 219 220 220 227 233 233 231 227 225 230 235 240 244 247 251 259 269 276 285 293 299 302 313 319 321 322 316 324 318 309 302 305 304 291 288
218 225 213 215 216 211 209 211 214 218 228 228 226 228 231 231 232 232 235 243 247 249 252 261 268 274 279 286 294 296 299 299 306 313 318 330 325 317 302 301 295 298 290
226 224 223 208 210 204 208 211 214 223 231 231 228 222 218 222 226 230 235 240 245 246 247 253 261 261 270 275 283 287 288 292 296 314 324 341 334 315 302 301 293 294 293
226 223 225 203 201 203 209 212 215 226 230 229 229 226 221 217 218 225 235 240 241 249 252 250 254 252 258 265 275 281 288 296 285 296 317 322 319 308 297 293 292 287 281
217 216 219 209 201 204 207 216 222 229 225 227 237 227 228 224 224 227 241 246 248 254 263 265 264 260 263 271 279 301 295 294 287 287 308 310 313 295 290 290 287 285 278
213 213 217 219 216 214 218 220 225 232 238 221 218 216 212 214 232 249 247 249 249 255 263 263 270 266 264 267 266 279 293 297 290 284 287 300 301 288 293 293 279 281 275
211 213 216 220 221 224 228 231 231 232 239 234 227 222 228 229 243 242 250 257 249 256 260 267 269 271 271 274 270 265 266 274 289 293 283 279 296 283 295 290 274 278 273
205 206 211 212 213 225 231 236 241 239 238 237 237 232 225 211 225 250 245 246 242 262 267 269 272 273 269 274 279 274 271 269 280 295 293 288 299 299 289 281 279 276 271
190 194 201 207 215 226 239 237 243 246 240 241 246 249 235 237 243 234 242 253 243 251 266 275 273 280 286 288 281 277 278 270 272 267 278 289 291 300 278 290 282 274 267
177 187 198 210 224 234 239 245 250 249 247 245 245 246 242 237 243 240 237 236 261 255 251 263 271 285 292 299 291 285 277 266 281 275 265 281 285 286 284 284 277 276 271